Home   Weather   Belém   Past weeks
Flag for Brazil

Past Weather in Belém, Pará, Brazil — Yesterday and Last 2 Weeks

Now
73 °F

Clear.


Feels Like: 70 °F
Forecast: 88 / 72 °F
Wind: 5 mph from East

Location: Belem Aeroporto

Current Time: Jul 19, 2019 at 5:49:41 am

Latest Report: Jul 19, 2019 at 5:00 am


Visibility: 10 mi

Pressure: 29.95 "Hg

Humidity: 94%

Dew Point: 72 °F

Location of BelémLocation

Past Weather in Belém — Graph

°F

Belém Temperature Yesterday

Maximum temperature yesterday: 84 °F (at 12:00 pm)
Minimum temperature yesterday: 73 °F (at 12:00 am)
Average temperature yesterday: 77 °F

High & Low Weather Summary for the Past Weeks

 TemperatureHumidityPressure
High90 °F (Jul 4, 2:00 pm)100% (Jul 4, 6:00 am)30.01 "Hg (Jul 4, 6:00 am)
Low73 °F (Jul 4, 6:00 am)55% (Jul 5, 4:00 pm)29.80 "Hg (Jul 14, 4:00 pm)
Average79 °F83%29.93 "Hg
* Reported Jul 4 4:00 am — Jul 19 4:00 am, Belém. Weather by CustomWeather, © 2019

Note: Actual official high and low records may vary slightly from our data, if they occured in-between our weather recording intervals... More about our weather records

Advertising

Belém Weather History for the Previous 24 Hours

Scroll right to see more
 ConditionsComfort  
Time TempWeatherWind HumidityBarometerVisibility
4:00 am
Fri, Jul 19
73 °FClear.6 mph94%29.95 "Hg5 mi
3:00 am73 °FClear.6 mph94%29.95 "Hg10 mi
2:00 am73 °FClear.7 mph94%29.98 "Hg10 mi
1:00 am73 °FClear.6 mph94%29.98 "Hg10 mi
12:00 am73 °FClear.7 mph94%30.01 "Hg10 mi
11:00 pm
Thu, Jul 18
75 °FPassing clouds.7 mph94%30.01 "HgN/A
10:00 pm75 °FPassing clouds.9 mph94%30.01 "HgN/A
9:00 pm75 °FPartly cloudy.7 mph94%29.98 "HgN/A
8:00 pm75 °FPassing clouds.5 mph94%29.95 "HgN/A
7:00 pm73 °FPassing clouds.5 mph100%29.92 "HgN/A
6:00 pm75 °FThunderstorms. Broken clouds.7 mph94%N/AN/A
5:00 pm75 °FThunderstorms. Partly sunny.18 mph89%N/A2 mi
4:20 pm82 °FThunderstorms. Partly sunny.12 mph79%N/A3 mi
4:00 pm82 °FPartly sunny.9 mph84%29.89 "HgN/A
3:00 pm81 °FPartly sunny.6 mph79%29.89 "HgN/A
2:00 pm84 °FPartly sunny.7 mph79%29.92 "HgN/A
1:00 pm84 °FPartly sunny.8 mph74%29.95 "HgN/A
12:00 pm84 °FScattered clouds.9 mph74%29.98 "HgN/A
11:00 am82 °FPartly sunny.7 mph79%29.98 "HgN/A
10:00 am82 °FScattered clouds.7 mph79%29.98 "HgN/A
9:00 am81 °FPassing clouds.7 mph79%29.98 "HgN/A
8:00 am79 °FPassing clouds.5 mph84%29.98 "HgN/A
7:00 am73 °FScattered clouds.5 mph94%30.01 "HgN/A
6:00 am73 °FClear.2 mph94%29.95 "Hg10 mi
5:00 am73 °FClear.2 mph94%29.95 "Hg10 mi
Weather by CustomWeather, © 2019

See weather overview